Location: Dammartin
(48.9032°N, 1.6195°E)
Time: 19:56:50
(UTC+00:00)

BlueWalker 3 - Pass Details

Date: 03 February 2023
Orbit: 497 x 515 km, 53.2° (Epoch: 21 March)

Event Time Altitude Azimuth Distance (km) Brightness Sun altitude
Rises 16:52:49 0° 254° (WSW) 2,587 8.1 -0.7°
Reaches altitude 10° 16:55:00 10° 258° (WSW) 1,708 6.5 -1.0°
Maximum altitude 16:58:51 65° 341° (NNW) 558 2.2 -1.6°
Drops below altitude 10° 17:02:44 10° 64° (ENE) 1,726 4.0 -2.2°
Enters shadow 17:04:13 - 66° (ENE) 2,325 4.6 -2.4°
Exits shadow 17:39:57 -74° 85° (E) 12,785 8.9 -7.9°
